[ hide orbit diagram ]
For accurate long-term ephemerides, please instead use our Horizons system.This orbit viewer was implemented using two-body methods, and hence should not be used for determining accurate long-term trajectories (over several years or decades) or planetary encounter circumstances.
Orbital Elements at Epoch 2459000.5 (2020-May-31.0) TDB
Reference: JPL 12 (heliocentric ecliptic J2000)
Element | Value | Uncertainty (1-sigma) | Units |
e | .1899326579898529 | 4.6201e-08 | |
a | 2.543773024605617 | 1.3379e-08 | au |
q | 2.060627452719385 | 1.1768e-07 | au |
i | 5.117538479244605 | 6.0184e-06 | deg |
node | 161.1920103743138 | 4.3659e-05 | deg |
peri | 107.9067834343522 | 4.6397e-05 | deg |
M | 191.0599006665467 | 1.6405e-05 | deg |
tp | 2459695.918448310524 (2022-Apr-26.41844831) | 6.9583e-05 | TDB |
period | 1481.889985737771 4.06 | 1.1691e-05 3.201e-08 | d yr |
n | .2429330135602279 | 1.9166e-09 | deg/d |
Q | 3.026918596491849 | 1.592e-08 | au |
|
| | Orbit Determination Parameters
Additional Information
|
[ show covariance matrix ]
Physical Parameter Table
Parameter |
Symbol |
Value |
Units |
Sigma |
Reference |
Notes |
absolute magnitude |
H |
16.5 |
|
n/a |
MPO453464 |
|
diameter |
diameter |
2.279 |
km |
0.078 |
urn:nasa:pds:neowise_diameters_albedos::2.0[mainbelt] (http://adsabs.harvard.edu/abs/2011ApJ...741...68M) |
|
geometric albedo |
albedo |
0.054 |
|
0.012 |
urn:nasa:pds:neowise_diameters_albedos::2.0[mainbelt] (http://adsabs.harvard.edu/abs/2011ApJ...741...68M) |
|
|
101022 (1998 QA60) Discovered 1998-Aug-26 by Spacewatch at Kitt Peak |
Reference: 20051019/Numbers.arc | Last Updated: 2005-10-26 |
|
[ show close-approach data ]
|